When you browse on this site, cookies collect data to enhance your experience and personalize the content and advertising you see.
Visit our Privacy Policy to learn more. By continuing to use the site, you agree to this use of cookies and data.
EN

Hourly Weather Bangarmau

Today, 5 July, Sunday

Time Temperature Precipitation Wind Pressure Humidity
00:00 +34°C° 0.1 mm 4 mps 736 mmHg 65%
01:00 +34°C° 0.1 mm 4 mps 736 mmHg 66%
02:00 +33°C° 0.1 mm 4 mps 736 mmHg 68%
03:00 +33°C° 0 mm 4 mps 735 mmHg 69%
04:00 +32°C° 0 mm 4 mps 735 mmHg 71%
05:00 +30°C° 0 mm 4 mps 736 mmHg 73%
06:00 +32°C° 1 mm 4 mps 736 mmHg 70%
07:00 +33°C° 1 mm 4 mps 736 mmHg 67%
08:00 +34°C° 1 mm 4 mps 736 mmHg 64%
09:00 +35°C° 0 mm 4 mps 736 mmHg 59%
10:00 +37°C° 0 mm 3 mps 736 mmHg 54%
11:00 +38°C° 0 mm 3 mps 736 mmHg 49%
12:00 +38°C° 0 mm 3 mps 735 mmHg 47%
13:00 +39°C° 0 mm 3 mps 734 mmHg 45%
14:00 +40°C° 0 mm 3 mps 734 mmHg 42%
15:00 +40°C° 0 mm 3 mps 733 mmHg 42%
16:00 +40°C° 0 mm 3 mps 733 mmHg 42%
17:00 +40°C° 0 mm 3 mps 732 mmHg 41%
18:00 +40°C° 0 mm 4 mps 733 mmHg 44%
19:00 +38°C° 0 mm 4 mps 733 mmHg 48%
20:00 +37°C° 0 mm 5 mps 733 mmHg 51%
21:00 +37°C° 0.1 mm 4 mps 734 mmHg 53%
22:00 +36°C° 0.1 mm 4 mps 734 mmHg 55%
23:00 +36°C° 0.1 mm 4 mps 734 mmHg 58%

Tomorrow, 6 July, Monday

Time Temperature Precipitation Wind Pressure Humidity
00:00 +35°C° 0.7 mm 4 mps 734 mmHg 60%
01:00 +35°C° 0.7 mm 4 mps 734 mmHg 62%
02:00 +34°C° 0.7 mm 4 mps 733 mmHg 64%
03:00 +34°C° 1.6 mm 4 mps 734 mmHg 64%
04:00 +34°C° 1.6 mm 3 mps 734 mmHg 65%
05:00 +34°C° 1.6 mm 3 mps 734 mmHg 65%
06:00 +34°C° 2.5 mm 4 mps 734 mmHg 65%
07:00 +34°C° 2.5 mm 4 mps 735 mmHg 64%
08:00 +34°C° 2.5 mm 4 mps 735 mmHg 64%
09:00 +35°C° 0.9 mm 3 mps 735 mmHg 61%
10:00 +36°C° 0.9 mm 3 mps 736 mmHg 59%
11:00 +36°C° 0.9 mm 2 mps 736 mmHg 57%
12:00 +37°C° 0.2 mm 2 mps 735 mmHg 53%
13:00 +38°C° 0.2 mm 2 mps 735 mmHg 50%
14:00 +39°C° 0.2 mm 2 mps 734 mmHg 46%
15:00 +39°C° 0 mm 3 mps 734 mmHg 45%
16:00 +39°C° 0 mm 3 mps 733 mmHg 45%
17:00 +40°C° 0 mm 3 mps 733 mmHg 44%
18:00 +39°C° 0 mm 3 mps 733 mmHg 47%
19:00 +38°C° 0 mm 3 mps 734 mmHg 50%
20:00 +38°C° 0 mm 3 mps 734 mmHg 53%
21:00 +37°C° 0 mm 3 mps 735 mmHg 55%
22:00 +37°C° 0 mm 3 mps 735 mmHg 57%
23:00 +36°C° 0 mm 3 mps 735 mmHg 59%

Day after tomorrow, 7 July, Tuesday

Time Temperature Precipitation Wind Pressure Humidity
00:00 +36°C° 1.9 mm 3 mps 735 mmHg 62%
01:00 +35°C° 1.9 mm 3 mps 735 mmHg 65%
02:00 +34°C° 1.9 mm 4 mps 735 mmHg 68%
03:00 +34°C° 1.1 mm 3 mps 735 mmHg 69%
04:00 +32°C° 1.1 mm 2 mps 735 mmHg 71%
05:00 +32°C° 1.1 mm 1 mps 736 mmHg 72%
06:00 +34°C° 1 mm 2 mps 736 mmHg 69%
07:00 +34°C° 1 mm 2 mps 737 mmHg 66%
08:00 +35°C° 1 mm 3 mps 737 mmHg 62%
09:00 +34°C° 2.7 mm 4 mps 737 mmHg 66%
10:00 +34°C° 2.7 mm 4 mps 738 mmHg 69%
11:00 +33°C° 2.7 mm 5 mps 738 mmHg 72%
12:00 +33°C° 0.5 mm 4 mps 737 mmHg 74%
13:00 +31°C° 0.5 mm 3 mps 737 mmHg 75%
14:00 +31°C° 0.5 mm 2 mps 737 mmHg 77%
15:00 +31°C° 0.4 mm 2 mps 736 mmHg 77%
16:00 +30°C° 0.4 mm 2 mps 736 mmHg 78%
17:00 +30°C° 0.4 mm 2 mps 736 mmHg 78%
18:00 +30°C° 0.1 mm 2 mps 736 mmHg 78%
19:00 +31°C° 0.1 mm 1 mps 736 mmHg 78%
20:00 +31°C° 0.1 mm 1 mps 737 mmHg 78%
21:00 +31°C° 0.5 mm 1 mps 737 mmHg 79%
22:00 +31°C° 0.5 mm 1 mps 737 mmHg 81%
23:00 +31°C° 0.5 mm 1 mps 737 mmHg 82%

8 July, Wednesday

Time Temperature Precipitation Wind Pressure Humidity
00:00 +31°C° 1.1 mm 1 mps 737 mmHg 82%
01:00 +30°C° 1.1 mm 1 mps 736 mmHg 82%
02:00 +30°C° 1.1 mm 1 mps 736 mmHg 82%
03:00 +30°C° 0.7 mm 1 mps 736 mmHg 81%
04:00 +30°C° 0.7 mm 1 mps 736 mmHg 81%
05:00 +30°C° 0.7 mm 1 mps 736 mmHg 80%
06:00 +31°C° 0 mm 1 mps 736 mmHg 75%
07:00 +32°C° 0 mm 1 mps 737 mmHg 70%
08:00 +33°C° 0 mm 1 mps 737 mmHg 64%
09:00 +34°C° 0 mm 1 mps 737 mmHg 60%
10:00 +37°C° 0 mm 2 mps 737 mmHg 55%
11:00 +38°C° 0 mm 2 mps 737 mmHg 50%
12:00 +38°C° 0 mm 2 mps 737 mmHg 49%
13:00 +39°C° 0 mm 2 mps 736 mmHg 47%
14:00 +39°C° 0 mm 2 mps 735 mmHg 46%
15:00 +39°C° 0 mm 2 mps 735 mmHg 46%
16:00 +39°C° 0 mm 2 mps 735 mmHg 47%
17:00 +39°C° 0 mm 2 mps 735 mmHg 47%
18:00 +38°C° 0 mm 2 mps 735 mmHg 51%
19:00 +37°C° 0 mm 3 mps 735 mmHg 54%
20:00 +37°C° 0 mm 3 mps 735 mmHg 58%
21:00 +36°C° 0.5 mm 3 mps 735 mmHg 61%
22:00 +35°C° 0.5 mm 3 mps 736 mmHg 64%
23:00 +35°C° 0.5 mm 3 mps 736 mmHg 67%

9 July, Thursday

Time Temperature Precipitation Wind Pressure Humidity
00:00 +34°C° 0.9 mm 3 mps 735 mmHg 68%
01:00 +34°C° 0.9 mm 3 mps 735 mmHg 69%
02:00 +34°C° 0.9 mm 3 mps 735 mmHg 71%
03:00 +34°C° 1 mm 2 mps 734 mmHg 71%
04:00 +32°C° 1 mm 2 mps 734 mmHg 71%
05:00 +32°C° 1 mm 2 mps 734 mmHg 71%
06:00 +32°C° 1.9 mm 2 mps 735 mmHg 72%
07:00 +33°C° 1.9 mm 3 mps 735 mmHg 73%
08:00 +33°C° 1.9 mm 4 mps 736 mmHg 74%
09:00 +33°C° 0.5 mm 3 mps 736 mmHg 72%
10:00 +33°C° 0.5 mm 3 mps 736 mmHg 71%
11:00 +34°C° 0.5 mm 2 mps 736 mmHg 69%
12:00 +34°C° 0.5 mm 3 mps 735 mmHg 68%
13:00 +34°C° 0.5 mm 3 mps 735 mmHg 68%
14:00 +35°C° 0.5 mm 4 mps 734 mmHg 67%
15:00 +34°C° 1.8 mm 4 mps 734 mmHg 69%
16:00 +34°C° 1.8 mm 4 mps 734 mmHg 70%
17:00 +34°C° 1.8 mm 5 mps 734 mmHg 71%
18:00 +33°C° 2.7 mm 4 mps 734 mmHg 76%
19:00 +32°C° 2.7 mm 4 mps 734 mmHg 81%
20:00 +30°C° 2.7 mm 3 mps 734 mmHg 85%
21:00 +30°C° 0.7 mm 3 mps 734 mmHg 85%
22:00 +30°C° 0.7 mm 2 mps 734 mmHg 85%
23:00 +30°C° 0.7 mm 2 mps 735 mmHg 85%

10 July, Friday

Time Temperature Precipitation Wind Pressure Humidity
00:00 +30°C° 0.5 mm 2 mps 734 mmHg 84%
01:00 +30°C° 0.5 mm 2 mps 734 mmHg 84%
02:00 +30°C° 0.5 mm 3 mps 733 mmHg 83%
03:00 +30°C° 0.5 mm 3 mps 733 mmHg 84%
04:00 +29°C° 0.5 mm 4 mps 733 mmHg 84%
05:00 +29°C° 0.5 mm 5 mps 733 mmHg 84%
06:00 +30°C° 1.1 mm 5 mps 733 mmHg 83%
07:00 +30°C° 1.1 mm 5 mps 734 mmHg 82%
08:00 +30°C° 1.1 mm 5 mps 734 mmHg 80%
09:00 +30°C° 0.2 mm 6 mps 734 mmHg 79%
10:00 +32°C° 0.2 mm 6 mps 734 mmHg 77%
11:00 +32°C° 0.2 mm 6 mps 734 mmHg 75%
12:00 +33°C° 0.4 mm 7 mps 734 mmHg 73%
13:00 +33°C° 0.4 mm 7 mps 733 mmHg 71%
14:00 +33°C° 0.4 mm 8 mps 733 mmHg 70%
15:00 +33°C° 0.2 mm 7 mps 732 mmHg 70%
16:00 +33°C° 0.2 mm 7 mps 732 mmHg 70%
17:00 +33°C° 0.2 mm 7 mps 732 mmHg 70%
18:00 +33°C° 0.4 mm 6 mps 732 mmHg 72%
19:00 +32°C° 0.4 mm 6 mps 732 mmHg 73%
20:00 +32°C° 0.4 mm 5 mps 733 mmHg 74%
21:00 +32°C° 0 mm 5 mps 733 mmHg 75%
22:00 +32°C° 0 mm 5 mps 733 mmHg 76%
23:00 +32°C° 0 mm 4 mps 733 mmHg 77%
Show more